Regional Weather Roundup
Issued by NWS Raleigh/Durham, NC

Home | Current Version | Previous Version | Text Only | Print | Product List | Glossary On
Versions: 1 2 3 4 5 6 7 8 9 10 11 12 13 14 15 16 17 18 19 20 21 22 23 24 25 26 27
000
ASUS42 KRAH 260810
RWRRAH
NORTH CAROLINA WEATHER ROUNDUP
NATIONAL WEATHER SERVICE RALEIGH NC
400 AM EDT THU MAY 26 2016

NOTE: "FAIR" INDICATES FEW OR NO CLOUDS BELOW 12,000 FEET WITH NO
SIGNIFICANT WEATHER AND/OR OBSTRUCTIONS TO VISIBILITY.

NCZ001-053-055-056-065-067-260900-
WESTERN NORTH CAROLINA

CITY           SKY/WX    TMP DP  RH WIND       PRES   REMARKS
ASHEVILLE      CLEAR     58  55  90 S3        30.22R
JEFFERSON      CLOUDY    62  56  81 CALM      30.24S
MORGANTON      PTCLDY    61  61  98 CALM      30.20S
HICKORY        PTCLDY    66  61  84 CALM      30.15S
RUTHERFORDTON  CLEAR     61  61 100 CALM      30.17R
MOUNT AIRY     MOCLDY    64  61  89 CALM      30.17F
BOONE          CLOUDY    58  56  92 CALM      30.24F
$$

NCZ021-022-025-041-071-084-088-260900-
CENTRAL NORTH CAROLINA

CITY           SKY/WX    TMP DP  RH WIND       PRES   REMARKS
CHARLOTTE      CLEAR     67  58  72 S5        30.16S
GREENSBORO     MOCLDY    66  59  78 CALM      30.14S
WINSTON-SALEM  CLEAR     66  58  75 CALM      30.16S
RALEIGH-DURHAM PTCLDY    67  61  81 CALM      30.15S
FORT BRAGG     CLEAR     68  61  77 SW6       30.15S
FAYETTEVILLE   CLEAR     67  62  84 SW7       30.16S
BURLINGTON     CLEAR     61  58  90 E3        30.15R
LAURINBURG     CLEAR     65  61  87 S5        30.17S
$$

NCZ011-015-027-028-043-044-047-080-103-260900-
NORTHEASTERN NORTH CAROLINA

CITY           SKY/WX    TMP DP  RH WIND       PRES   REMARKS
ROCKY MT-WILSO CLEAR     65  62  90 S5        30.16R
GREENVILLE     MOCLDY    68  61  77 S6        30.18R
WASHINGTON     PTCLDY    67  63  87 S5        30.17S
ELIZABETH CITY CLEAR     67  61  81 S10       30.16S
MANTEO         NOT AVBL
CAPE HATTERAS  PTCLDY    69  66  90 SW3       30.19F
$$

NCZ078-087-090-091-093-098-101-260900-
SOUTHEASTERN NORTH CAROLINA

CITY           SKY/WX    TMP DP  RH WIND       PRES   REMARKS
LUMBERTON      CLEAR     68  63  84 S5        30.17R
GOLDSBORO      CLEAR     69  67  94 S6        30.15S
KINSTON        PTCLDY    69  63  82 S6        30.18R
KENANSVILLE    MOCLDY    65  63  93 CALM      30.18S
NEW BERN       CLEAR     67  64  90 S3        30.19S
CHERRY POINT   PTCLDY    67  64  90 S3        30.19F
BEAUFORT       CLEAR     70  68  93 S6        30.19S
JACKSONVILLE   PTCLDY    67  64  90 S3        30.18S
WILMINGTON     CLEAR     68  66  93 SW3       30.18S
$$





USA.gov is the U.S. government's official web portal to all federal, state and local government web resources and services.